Weather History for KENW - May, 2013

Change the Weather History Date:

Monday, May 20, 2013

  Actual Average Record
Temperature  
Mean Temperature 77 °F -  
Max Temperature 88 °F 65 °F 91 °F (2012)
Min Temperature 66 °F 46 °F 30 °F (2002)
Cooling Degree Days 12    
Growing Degree Days 27 (Base 50)    
Moisture  
Dew Point 59 °F    
Average Humidity 57    
Maximum Humidity 87    
Minimum Humidity 30    
Precipitation  
Precipitation 0.19 in - - ()
Sea Level Pressure  
Sea Level Pressure 29.73 in    
Wind  
Wind Speed 11 mph (SSW)    
Max Wind Speed 23 mph    
Max Gust Speed 31 mph    
Visibility 8 miles    
Events Rain , Thunderstorm    
Averages and records for this station are not official NWS values.
T = Trace of Precipitation, MM = Missing Value Source: NWS Daily Summary

Daily Weather History Graph

Daily Weather History Graph

Search for Another Location

Airport or City:

Trip Planner

Search our weather history database for the weather conditions in past years. The results will help you decide how hot, cold, wet, or windy it might be!

Date:

Astronomy

May. 20, 2013 Rise Set
Actual Time 5:24 AM CDT 8:12 PM CDT
Civil Twilight 4:51 AM CDT 8:45 PM CDT
Nautical Twilight 4:10 AM CDT 9:27 PM CDT
Astronomical Twilight 3:22 AM CDT 10:15 PM CDT
Moon 3:13 PM CDT (5/20) 2:26 AM CDT (5/20)
Length of Visible Light 15h 53m
Length of Day
14h 47m
Waxing Gibbous, 75% of the Moon is Illuminated
May 20
Waxing Gibbous
May 24
Full
May 31
Last Quarter
Jun 8
New
Jun 16
First Quarter

Hourly Weather History & Observations

Time (CDT) Temp. Heat Index Dew Point Humidity Pressure Visibility Wind Dir Wind Speed Gust Speed Precip Events Conditions
12:53 AM 70.0 °F - 59.0 °F 68% 29.76 in 10.0 mi SSE 10.4 mph - N/A   Partly Cloudy
1:53 AM 72.0 °F - 62.1 °F 71% 29.75 in 9.0 mi SE 8.1 mph - N/A   Clear
2:53 AM 70.0 °F - 62.1 °F 76% 29.74 in 7.0 mi ESE 9.2 mph - N/A   Clear
3:53 AM 66.9 °F - 61.0 °F 81% 29.73 in 6.0 mi SE 5.8 mph - N/A   Haze
4:53 AM 68.0 °F - 62.1 °F 81% 29.75 in 6.0 mi South 3.5 mph - N/A   Haze
6:53 AM 73.0 °F - 64.9 °F 76% 29.77 in 7.0 mi South 6.9 mph - N/A   Clear
7:53 AM 75.9 °F - 64.9 °F 69% 29.77 in 10.0 mi SSW 11.5 mph 19.6 mph N/A   Clear
8:53 AM 75.9 °F - 62.1 °F 62% 29.74 in 10.0 mi South 11.5 mph - N/A   Clear
9:53 AM 75.9 °F - 61.0 °F 60% 29.74 in 10.0 mi South 11.5 mph - N/A   Clear
10:53 AM 81.0 °F 80.8 °F 55.9 °F 42% 29.75 in 10.0 mi SSW 23.0 mph 29.9 mph N/A   Clear
11:53 AM 82.9 °F 82.4 °F 57.0 °F 41% 29.75 in 10.0 mi WSW 15.0 mph 25.3 mph N/A   Clear
12:53 PM 84.0 °F 83.0 °F 55.9 °F 38% 29.75 in 10.0 mi SW 17.3 mph 24.2 mph N/A   Clear
1:53 PM 86.0 °F 84.5 °F 55.0 °F 35% 29.73 in 10.0 mi SW 12.7 mph 26.5 mph N/A   Clear
2:53 PM 88.0 °F 86.1 °F 55.0 °F 32% 29.73 in 10.0 mi WSW 20.7 mph 31.1 mph N/A   Partly Cloudy
3:53 PM 87.1 °F - 52.0 °F 30% 29.72 in 10.0 mi SSW 21.9 mph 31.1 mph N/A   Clear
4:53 PM 87.1 °F 85.1 °F 54.0 °F 32% 29.69 in 10.0 mi WSW 16.1 mph 20.7 mph N/A   Clear
5:53 PM 84.9 °F 83.7 °F 55.9 °F 37% 29.69 in 10.0 mi WSW 13.8 mph 23.0 mph N/A   Clear
6:53 PM 84.0 °F 83.0 °F 55.9 °F 38% 29.70 in 10.0 mi SW 8.1 mph - N/A   Clear
7:53 PM 80.1 °F 80.2 °F 55.9 °F 43% 29.70 in 10.0 mi SSW 5.8 mph - N/A   Clear
8:53 PM 78.1 °F - 57.0 °F 48% 29.70 in 10.0 mi South 4.6 mph - N/A   Clear
9:53 PM 73.0 °F - 57.0 °F 57% 29.70 in 10.0 mi Calm Calm - N/A   Clear
10:53 PM 75.0 °F - 57.9 °F 55% 29.69 in 10.0 mi South 4.6 mph - N/A Thunderstorm Overcast
11:24 PM 69.8 °F - 62.6 °F 78% 29.76 in 2.5 mi SW 8.1 mph - 0.12 in Rain , Thunderstorm Heavy Thunderstorms and Rain
11:33 PM 69.8 °F - 62.6 °F 78% 29.77 in 4.0 mi South 10.4 mph - 0.15 in Rain , Thunderstorm Thunderstorms and Rain
11:46 PM 69.8 °F - 62.6 °F 78% 29.76 in 5.0 mi SW 11.5 mph 26.5 mph 0.18 in Rain , Thunderstorm Thunderstorms and Rain
11:53 PM 68.0 °F - 64.0 °F 87% 29.73 in 5.0 mi SW 12.7 mph 18.4 mph 0.19 in Rain , Thunderstorm Thunderstorms and Rain